Regional Weather Roundup
Issued by NWS

Home | Current Version | Previous Version | Text Only | Print | Product List | Glossary On
Versions: 1 2 3 4 5 6 7 8 9 10 11 12 13 14 15 16 17 18 19 20 21 22 23 24 25 26 27 28 29 30 31 32 33 34 35 36 37 38 39 40 41 42 43 44 45 46 47 48 49 50
000
ASUS46 KLOX 281313
RWRCA

SOUTHERN CALIFORNIA WEATHER ROUNDUP
NATIONAL WEATHER SERVICE OXNARD CALIFORNIA
600 AM PDT FRI AUG 28 2015

NOTE: "FAIR" INDICATES FEW OR NO CLOUDS BELOW 12,000 FEET WITH NO
SIGNIFICANT WEATHER AND/OR OBSTRUCTIONS TO VISIBILITY.

  -  STATIONS PRECEEDED BY AN ASTERISK (*) ARE NOT NWS OR FAA
     STATIONS AND ARE NOT SUBJECT TO NWS AND FAA QUALITY CONTROL.

CAZ041-042-087-281400-
LA AND ORANGE COUNTY COASTAL AREAS


CITY           SKY/WX    TMP DP  RH WIND       PRES   REMARKS
L.A. DOWNTOWN  CLEAR     74  65  73 CALM      29.87S
L.A. AIRPORT   PTCLDY    73  65  75 CALM      29.88S
LONG BEACH     CLEAR     74  68  81 CALM      29.88S

CITY           SKY/WX    TMP DP  RH WIND       PRES   REMARKS
AVALON           N/A     68 N/A N/A S3          N/A
FULLERTON      CLEAR     74  68  81 CALM      29.87S
HAWTHORNE      CLEAR     74  66  76 CALM      29.88S
*LEO CARRILLO    N/A     70  56  61 N3          N/A
*LOS ALAMITOS  FAIR      69  68  98 CALM      29.88S
*REDONDO BEACH   N/A     67  63  87 CALM      29.88S
SANTA ANA      CLEAR     73  61  65 CALM      29.88S
STA MONICA APT CLEAR     71  60  68 E3        29.88S
*UCLA            N/A     73  55  53 CALM      29.86S

$$

CAZ547-548-048-281400-
LA COUNTY VALLEYS AND INLAND EMPIRE


CITY           SKY/WX    TMP DP  RH WIND       PRES   REMARKS
BURBANK        CLEAR     75  54  47 CALM      29.90S
VAN NUYS       CLEAR     72  61  68 CALM      29.90S

CITY           SKY/WX    TMP DP  RH WIND       PRES   REMARKS
CORONA AIRPORT SUNNY     64  57  78 CALM      29.91S
*CHATSWORTH      N/A     71  58  62 CALM      29.88S
CHINO          CLEAR     71  59  65 CALM      29.92R
MARCH AFB      CLEAR     70  53  54 CALM      29.94S
*NORTHRIDGE      N/A     72  57  60 CALM        N/A
ONTARIO        CLEAR     76  57  51 CALM      29.91S
*PASADENA        N/A     75  57  53 CALM        N/A
RIVERSIDE      CLEAR     74  58  57 E3        29.91S
SAN BERNARDINO NOT AVBL
*SAN GABRIEL     N/A     72  62  72 W2        29.94R
*SAN RAFAEL HI   N/A     80  46  29 N2          N/A
*SAUGUS          N/A     77  45  32 N2          N/A
*WHITEMAN AP   NOT AVBL
*WHITTIER HILL   N/A     74  59  59 CALM        N/A
*WOODLAND HILL   N/A     70  57  64 S1          N/A

$$

CAZ054-055-281400-
LA AND SAN BERNARDINO COUNTY MOUNTAINS


CITY           SKY/WX    TMP DP  RH WIND       PRES   REMARKS
*BIG BEAR AIRP SUNNY     48  37  66 CALM      30.34R
SANDBERG       PTCLDY    74  42  31 N12       30.17R

$$

CAZ028-029-059-060-099-281400-
ANTELOPE VALLEY AND SURROUNDING AREAS


CITY           SKY/WX    TMP DP  RH WIND       PRES   REMARKS
LANCASTER      CLEAR     74  40  29 CALM      30.01R
PALMDALE       CLEAR     71  42  35 S5        30.02S
*POPPY PARK      N/A     78  42  27 W9G21       N/A

CITY           SKY/WX    TMP DP  RH WIND       PRES   REMARKS
29 PALMS       CLEAR     82  46  28 W9        30.03R
BARSTOW/DAGGET CLEAR     78  40  25 W13       29.96S
BISHOP         CLEAR     57  38  48 NW3       30.12S
CHINA LAKE     CLEAR     71  36  27 W5        29.97S
EDWARDS AFB    PTCLDY    70  38  31 CALM      29.98S
MOJAVE         CLEAR     73  39  29 CALM      30.02F
NEEDLES        CLEAR     88  58  36 SW3       29.89R
VICTORVILLE    CLEAR     70  46  43 CALM      30.04S

$$

CAZ039-040-281400-
VENTURA AND SANTA BARBARA COUNTY COAST


CITY           SKY/WX    TMP DP  RH WIND       PRES   REMARKS
CAMARILLO      CLEAR     69  60  73 CALM      29.87S
NWS OXNARD       N/A     66  59  79 CALM      29.86S
OXNARD AIRPORT CLEAR     67  59  75 NE3       29.86F
*POINT MUGU    PTCLDY    66  61  84 CALM      29.87S
SBA APT/GOLETA CLEAR     67  60  78 CALM      29.87S
*SANTA BARBARA   N/A     71  64  79 CALM      29.94S
*VENTURA         N/A     67  56  69 CALM      29.47S

$$

CAZ044-045-281400-
VENTURA COUNTY VALLEYS


CITY           SKY/WX    TMP DP  RH WIND       PRES   REMARKS
*SIMI VALLEY     N/A     69  57  65 CALM      29.83R
*OJAI            N/A     60  54  80 CALM      29.83S
*FILLMORE        N/A     63  56  79 CALM      29.78S

$$

CAZ053-281400-
VENTURA COUNTY MOUNTAINS


CITY           SKY/WX    TMP DP  RH WIND       PRES   REMARKS
*LOCKWOOD VLY    N/A     54  34  47 MISG        N/A
*ROSE VALLEY     N/A     52  39  62 MISG        N/A

$$

CAZ034-035-036-281400-
CENTRAL COAST AND SANTA YNEZ VALLEY


CITY           SKY/WX    TMP DP  RH WIND       PRES   REMARKS
SAN LUIS OBISP CLEAR     64  50  60 CALM      29.88S
SANTA MARIA    CLEAR     62  51  67 CALM      29.89R

CITY           SKY/WX    TMP DP  RH WIND       PRES   REMARKS
*CAL POLY SLO    N/A     84  50  30 NW10        N/A
*LOMPOC        CLEAR     57  46  67 W5        29.90R
*PISMO BEACH     N/A     62  56  82 CALM      29.88S
*SANTA YNEZ    FAIR      61  46  59 CALM      29.90S

$$

CAZ037-038-051-281400-
SAN LUIS OBISPO COUNTY INTERIOR AND CUYAMA VALLEY


CITY           SKY/WX    TMP DP  RH WIND       PRES   REMARKS
*CUYAMA          N/A     65  44  48 E2        29.88S
PASO ROBLES    CLEAR     61  44  53 CALM      29.95S

$$

CAZ032-033-061-281400-
SOUTHERN DESERTS


CITY           SKY/WX    TMP DP  RH WIND       PRES   REMARKS
BLYTHE         CLEAR     86  64  47 N3        29.84R
IMPERIAL       CLEAR     87  71  58 SE7       29.80R HX  93
PALM SPRINGS   CLEAR     91  51  25 W5        29.85R
THERMAL        CLEAR     78  61  55 CALM      29.79R

$$

ELSEWHERE ACROSS THE WESTERN UNITED STATES AND MEXICO


CITY           SKY/WX    TMP DP  RH WIND       PRES   REMARKS
DEATH VALLEY,    N/A     92  44  18 CALM        N/A
DENVER, CO     PTCLDY    59  53  80 SW6       30.21R
GRAND CANYON,  CLEAR     47  43  86 CALM      30.34R
HONOLULU, HI   MOCLDY    79  75  89 NW5       29.86F
KAHULUI, MAUI  CLEAR     73  70  88 SE6       29.87F
LAKE TAHOE, CA PTCLDY    46  37  71 CALM      30.29S
LAS VEGAS, NV  PTCLDY    83  52  34 SW3       29.94S
MAMMOTH LAKES, FAIR      48  32  53 CALM      30.35S
MEXICO CITY, M CLOUDY    59  50  72 NW7       30.32
PHOENIX, AZ    PTCLDY    82  65  56 E6        29.91R
PORTLAND, OR   CLOUDY    66  53  63 W6        30.00F
RENO, NV       PTCLDY    64  40  41 W3        30.17S
SALT LAKE CITY PTCLDY    66  50  56 SE7       30.18R
SAN DIEGO, CA  CLEAR     74  68  81 NW3       29.89R
SAN FRANCISCO, PTCLDY    65  54  67 CALM      29.90F
SAN JOSE, CA   CLEAR     66  52  60 E3        29.91F
SEATTLE, WA    LGT RAIN  61  57  87 S10       30.01F
TIJUANA, MEX   CLEAR     72  61  68 CALM      29.91R

$$

STATION/POSITION TIME  TEMP    WIND        PRES    VSBY  WAVE
                       AIR SEA DIR/SP/G                  HT/PER
                 (UTC) (F)     (DEG/KT/KT) (MB)    (MI)  (FT/S)
POINT ARGUELLO B NOT AVBL
WEST SANTA BARBA 1250   67 67  320/  8/ 10 1011.0R         5/14
POINT CONCEPTION NOT AVBL
EAST SANTA BARBA 1300   71 71   50/  6/  6 1011.8F
SANTA MONICA BAY 1250   72 74  120/  6/  8 1011.4F         2/15


USA.gov is the U.S. government's official web portal to all federal, state and local government web resources and services.